Location: Äbnet
(46.9957°N, 8.4908°E)
Time: 12:21:05
(UTC+00:00)

Daily predictions for brighter satellites

Satellite Brightness Start Highest point End
(mag) Time Altitude Azimuth Time Altitude Azimuth Time Altitude Azimuth
Cosmos 2184 Rocket 4.4 19:51:09 10° N 19:57:07 47° ENE 20:03:04 10° SSE
GEOS 3 Rocket 3.7 19:53:47 10° SE 19:58:54 78° SW 20:04:03 10° NW
Cosmos 1656 3.7 19:56:25 10° NNW 20:01:56 87° WSW 20:07:28 10° SSE
USA 32 4.0 19:56:52 10° S 20:02:04 77° E 20:07:18 10° N
SPOT 5 3.7 19:59:26 10° SE 20:03:14 30° ENE 20:07:01 10° N
Terra 3.2 20:01:37 10° ESE 20:05:28 25° ENE 20:09:21 10° N
Spot 2 Rocket 4.3 20:01:59 10° SE 20:06:39 38° ENE 20:11:21 10° N
CZ-4B R/B 0.9 20:05:19 10° NNE 20:08:12 71° ESE 20:11:04 10° S
MetOp-B 4.2 20:04:18 10° SSE 20:09:38 77° ENE 20:15:00 10° NNW
SPOT 1/Viking Rocket 3.7 20:04:39 10° S 20:09:47 78° WSW 20:14:59 10° NNW
H-2A R/B 2.5 20:06:13 10° N 20:10:41 73° WNW 20:15:08 10° SSW
Cosmos 1536 Rocket 3.6 20:10:11 10° S 20:14:28 65° E 20:18:48 10° NNE
USA 245 3.3 20:12:50 10° SSE 20:16:45 55° ENE 20:19:55 10° N
CARTOSAT-1 3.6 20:13:42 10° SSE 20:18:00 79° ENE 20:22:20 10° N
Cosmos 1697 Rocket 2.9 20:12:44 10° NNW 20:18:20 65° ENE 20:23:48 11° SE
Cosmos 1980 Rocket 3.2 20:13:04 10° NNW 20:18:21 37° NE 20:23:34 10° ESE
SL-16 R/B 4.4 20:15:31 10° N 20:18:42 15° NE 20:21:53 10° ENE
Cosmos 1606 Rocket 4.5 20:15:23 10° N 20:19:19 33° ENE 20:23:02 11° SE
Cosmos 1452 Rocket 3.5 20:17:33 10° SSW 20:22:49 89° ESE 20:28:06 10° NNE
USA 276 3.1 20:20:13 10° WNW 20:23:09 44° N 20:26:05 10° ENE
Cosmos 2369 4.4 20:18:49 10° NNW 20:24:19 44° NE 20:29:34 11° SE
ARIANE 5 R/B 4.0 20:21:17 10° ESE 20:24:57 26° ENE 20:28:37 10° N
Lacrosse 5 3.7 20:21:48 10° WNW 20:25:41 22° SW 20:29:34 10° S
Cosmos 2344 4.4 20:17:44 10° NW 20:26:25 69° NE 20:38:14 11° SE
ERS-1 Rocket 3.4 20:22:20 10° SE 20:27:05 49° ENE 20:31:56 10° N
Cosmos 1110 Rocket 4.0 20:22:24 10° S 20:27:36 64° ESE 20:32:51 10° NNE
Cosmos 1900 4.5 20:23:28 10° NNW 20:28:40 81° NE 20:33:18 13° SE
COSMOS 2406 3.6 20:26:21 10° S 20:31:46 44° ESE 20:37:11 10° NE
Cosmos 2074 Rocket 4.1 20:32:25 10° N 20:38:43 85° W 20:44:58 10° S
Cosmos 1726 Rocket 4.1 20:37:35 10° N 20:41:43 42° ENE 20:44:55 16° SE
Cosmos 968 Rocket 4.0 20:37:19 10° NNW 20:42:21 47° ENE 20:46:32 15° SE
Cosmos 1833 Rocket 2.7 20:36:57 10° SSW 20:42:34 86° ESE 20:48:14 10° NNE
Cosmos 1703 3.4 20:40:33 10° SSW 20:44:22 75° W 20:48:15 10° N
Cosmos 1408 3.9 20:45:32 16° SE 20:47:03 21° E 20:49:44 10° NE
Nadezhda 1 Rocket 3.9 20:43:37 10° S 20:49:38 71° E 20:55:42 10° NNE
Cosmos 192 4.5 20:48:13 10° S 20:52:57 54° ESE 20:57:45 10° NNE
USA 267 4.2 20:48:37 10° ENE 20:53:39 23° SE 20:58:23 11° S
Cosmos 2322 Rocket 4.3 20:49:58 10° N 20:53:51 18° NE 20:57:43 10° E
Cosmos 1295 Rocket 4.5 20:48:44 10° N 20:55:00 85° E 21:00:33 13° S
Cosmos 1825 4.1 20:54:14 13° ESE 20:55:22 14° E 20:57:25 10° NE
RESURS DK-1 3.6 20:51:48 10° NW 20:55:33 34° WSW 20:59:05 11° S
Cosmos 1867 3.7 20:55:57 10° NNW 21:01:26 68° NE 21:05:33 18° SE
Cosmos 2084 Rocket 3.4 21:00:31 10° NW 21:04:24 68° SW 21:06:56 22° SSE
X-37B 1.5 21:03:18 10° W 21:05:43 26° SSW 21:06:14 24° S
Helios 1A Rocket 3.1 21:03:00 16° S 21:06:12 69° WSW 21:10:19 10° NNW
Cosmos 2278 4.3 21:01:08 10° NNW 21:06:42 49° ENE 21:10:53 17° SE
Meteor 1-11 4.4 21:07:11 16° SSE 21:11:27 54° E 21:16:52 10° NNE
Cosmos 2154 Rocket 4.2 21:05:31 10° NNW 21:11:41 69° W 21:17:21 12° S
Cosmos 1328 3.9 21:13:35 13° SSW 21:17:09 76° W 21:21:09 10° N
Cosmos 2082 Rocket 2.2 21:12:52 10° SSW 21:18:33 72° ESE 21:24:15 10° NNE
CZ-2C R/B 3.7 21:16:42 10° NNE 21:21:16 82° WNW 21:25:23 12° SSW
Cosmos 2228 4.3 21:19:45 10° NNW 21:23:35 34° W 21:27:18 11° SSW
Cosmos 1892 Rocket 3.5 21:21:09 18° S 21:24:23 85° E 21:28:47 10° N
USA 234 4.2 21:22:54 10° E 21:29:05 47° NNE 21:35:18 10° NW
SL-8 Rocket 4.1 21:22:58 10° N 21:29:12 67° E 21:33:12 23° SSE
Cosmos 2360 Rocket 4.1 21:25:00 10° N 21:29:15 21° NE 21:33:30 10° E
Cosmos 2058 Rocket 3.0 21:27:25 10° N 21:31:53 83° E 21:34:19 27° SSE
Cosmos 1626 Rocket 4.2 21:33:53 27° SE 21:35:30 37° E 21:39:33 10° NNE
SAR-Lupe-1 4.2 21:33:19 10° NNE 21:36:50 53° ESE 21:38:02 35° SSE
Cosmos 1633 4.0 21:38:43 20° E 21:39:03 20° E 21:41:41 10° NE
Cosmos 1992 Rocket 4.2 21:36:31 23° S 21:39:36 55° ESE 21:44:43 10° NNE
SPOT 5 4.1 21:37:57 12° SSW 21:41:19 29° W 21:45:06 10° NW
Cosmos 1486 Rocket 4.1 21:37:19 10° NNW 21:42:33 68° ENE 21:45:24 27° SE
Terra 2.7 21:39:42 18° SSW 21:43:00 44° W 21:47:33 10° NNW
Cosmos 1892 2.6 21:44:18 28° SSW 21:46:09 82° W 21:49:58 10° N
SJ 16-02 2.8 21:43:19 10° N 21:47:08 27° ENE 21:49:28 18° ESE
Cosmos 2366 rocket 4.0 21:42:33 10° N 21:48:56 78° E 21:52:47 26° SSE
FALCON 9 DEB 2.9 21:45:53 10° WNW 21:49:09 86° NNE 21:50:08 42° ESE
Cosmos 2218 Rocket 4.0 21:47:28 10° N 21:53:55 85° E 21:57:46 26° S
ASTEX 1 3.4 21:50:47 10° N 21:55:48 84° W 21:58:45 25° S
CSL-04 DEB 4.5 21:53:30 10° NNE 21:57:53 87° ESE 22:00:05 29° SSW
USA 276 2.0 21:56:05 10° WNW 21:59:07 75° NNE 21:59:52 46° E
ADEOS Rocket 4.2 21:56:00 19° SE 22:01:04 46° ENE 22:08:21 10° N
ARIANE 5 R/B 3.7 21:58:45 20° SSW 22:01:15 36° W 22:05:22 10° NNW
Cosmos 1697 Rocket 4.5 21:57:39 10° NW 22:01:46 21° W 22:05:32 11° SW
Cosmos 1980 Rocket 3.0 21:57:05 10° NW 22:02:24 41° WSW 22:05:29 22° SSW
GP-B 3.3 21:58:19 10° N 22:02:45 68° W 22:05:01 28° SSW
SL-16 R/B 2.5 21:58:23 10° NNW 22:04:02 62° ENE 22:07:09 27° SE
Cosmos 2219 Rocket 4.4 22:01:39 10° N 22:05:37 19° NE 22:09:35 10° E
Cosmos 1959 Rocket 4.4 22:00:31 10° N 22:06:39 82° W 22:10:08 28° S
ATLAS 5 CENTAUR R/B 1.2 22:08:26 20° SW 22:10:55 80° NW 22:15:07 10° NE
Cosmos 1354 Rocket 4.3 22:06:20 10° NNW 22:11:35 60° ENE 22:14:08 30° SE
SL-4 R/B 3.7 22:14:12 16° E 22:14:12 16° E 22:15:13 10° ENE
ERS-2 4.4 22:11:47 10° ENE 22:13:08 12° E 22:13:08 12° E
In-Cosmos 22 Rocket 4.4 22:14:44 21° SSW 22:18:29 65° WNW 22:23:53 10° N
Cosmos 1503 Rocket 4.0 22:15:28 10° NNW 22:20:48 85° ENE 22:23:03 35° SSE
Cosmos 1408 4.5 22:19:29 14° WSW 22:21:37 23° WNW 22:24:28 10° NNW
Okean 1-7 Rocket 3.9 22:19:49 28° SSW 22:22:02 62° W 22:26:31 10° N
Cosmos 1869 3.8 22:21:50 10° NNW 22:25:37 49° W 22:26:47 36° SW
Cosmos 1758 Rocket 3.6 22:25:31 44° SSE 22:26:45 66° E 22:31:07 10° NNE
Cosmos 1777 Rocket 4.5 22:22:11 10° NNW 22:27:23 54° ENE 22:29:53 29° SE
Cosmos 1825 3.0 22:28:50 29° SW 22:30:18 44° WNW 22:33:55 10° N
Spot 4 3.8 22:35:11 40° S 22:36:54 81° WSW 22:41:44 10° NNW
USA 267 3.1 22:30:47 10° NE 22:37:21 77° SE 22:43:53 10° SW
Cosmos 1812 Rocket 3.6 22:33:20 10° NNW 22:37:48 73° W 22:39:08 44° SSW
Cosmos 44 4.1 22:38:36 29° ESE 22:38:36 29° ESE 22:42:26 10° ENE
Cosmos 2322 Rocket 2.2 22:33:06 10° NNW 22:38:49 81° ENE 22:41:25 34° SSE
Cosmos 1238 4.4 22:41:08 58° E 22:41:08 58° E 22:44:33 10° NNE
Cosmos-2242 2.9 22:37:50 10° N 22:42:05 81° W 22:43:11 49° S
BREEZE-M DEB (TANK) 3.9 22:39:39 10° WNW 22:43:02 83° NNE 22:56:45 10° ESE
Cosmos 1821 Rocket 3.9 22:37:15 10° N 22:43:31 84° W 22:46:22 34° S
Cosmos 1602 Rocket 4.0 22:48:54 33° SW 22:50:31 53° WNW 22:54:46 10° N
Cosmos 2333 Rocket 3.0 22:51:17 10° NNW 22:56:54 48° NE 23:00:26 22° ESE
ALOS 2 2.6 23:00:42 49° S 23:01:48 72° WSW 23:06:12 10° NNW
BREEZE-M DEB (TANK) 4.4 22:46:04 10° WNW 23:02:30 88° NNE 23:06:22 14° ESE
Cosmos 2082 Rocket 4.3 22:58:38 10° W 23:03:12 24° NW 23:07:48 10° N
Cosmos 972 Rocket 4.3 22:58:59 10° NNW 23:04:11 67° ENE 23:06:40 33° SE
Nadezhda 3 Rocket 4.0 23:02:13 32° SSW 23:05:12 77° W 23:11:24 10° N
Gbstr 26 Del rocket 3.0 23:05:11 49° SSW 23:06:09 64° SSE 23:11:11 10° ENE
Cosmos 1340 Rocket 2.8 23:05:53 58° SE 23:06:22 64° E 23:10:19 10° NNE
Cosmos 1606 3.1 23:07:02 10° NNW 23:10:47 50° W 23:11:18 46° WSW
USA 234 3.2 23:07:03 20° SE 23:11:50 84° SW 23:18:26 10° NW
Cosmos 1633 4.1 23:12:29 22° W 23:13:24 25° WNW 23:16:20 10° NNW
Cosmos 2360 Rocket 2.1 23:08:18 10° NNW 23:14:00 84° WSW 23:16:14 39° SSE
BREEZE-M DEB (TANK) 3.6 23:06:18 10° WSW 23:15:40 75° NNW 23:18:46 10° ENE
Cosmos 1953 Rocket 3.5 23:15:54 53° S 23:16:55 81° E 23:21:20 10° N
Cosmos 2333 4.4 23:15:17 10° NNW 23:21:05 72° ENE 23:23:58 31° SE
CRYOSAT 2 4.4 23:19:59 43° SSE 23:21:32 72° E 23:26:26 10° N
Cosmos 1763 Rocket 4.3 23:21:39 31° SE 23:22:57 36° ESE 23:27:44 10° NE
Cosmos 2151 4.4 23:23:01 24° ESE 23:23:56 26° E 23:27:33 10° NNE
H-2A R/B 4.2 23:21:26 10° N 23:25:28 47° WNW 23:26:52 33° WSW
SJ 16-02 2.2 23:21:42 10° NW 23:25:44 35° WSW 23:26:24 33° WSW
Cosmos 1825 Rocket 4.0 23:24:44 39° SW 23:25:58 52° WNW 23:30:14 10° N
PSLV R/B 3.8 23:23:22 10° NNE 23:28:06 66° E 23:29:18 47° SSE
Cosmos 1782 4.1 23:25:02 10° N 23:28:38 32° ENE 23:29:46 27° ESE
Cosmos 2058 3.5 23:28:04 39° WSW 23:29:08 50° WNW 23:33:14 10° N
Cosmos 1833 4.1 23:27:13 39° SSW 23:29:22 81° ESE 23:34:59 10° NNE
Cosmos 990 Rocket 4.3 23:29:47 10° NNW 23:34:53 59° ENE 23:37:18 30° SE
USA 290 3.7 23:35:11 10° N 23:38:07 31° ENE 23:38:48 28° E
Cosmos 2237 Rocket 4.2 23:34:38 10° N 23:39:12 24° NE 23:43:43 10° E
Cosmos 2221 2.4 23:34:57 10° N 23:39:19 82° W 23:40:15 55° S
COSMOS 2428 3.3 23:37:51 10° NNW 23:43:30 55° ENE 23:47:19 20° SE
Cosmos 2297 Rocket 4.2 23:44:07 12° ESE 23:46:12 15° E 23:49:09 10° ENE
ADEOS Rocket 4.1 23:42:56 28° SSW 23:46:28 45° W 23:53:51 10° NNW
ISS -3.0 23:47:44 42° E 23:47:44 42° E 23:50:10 10° ENE
ERS-2 2.5 23:43:29 10° N 23:46:59 51° WNW 23:47:29 46° WSW
Cosmos 1842 Rocket 3.5 23:42:44 10° N 23:47:15 90° WNW 23:48:21 52° S
COSMOS 2455 4.5 23:42:14 10° NNW 23:47:35 32° NE 23:52:55 10° ESE
SL-16 R/B 3.6 23:43:20 10° NW 23:47:39 23° WSW 23:49:00 21° WSW
COSMOS 2487 2.4 23:49:36 61° NE 23:49:36 61° NE 23:52:16 10° NNE
Nimbus 7 Rocket 4.4 23:43:32 10° NNE 23:49:30 87° WNW 23:52:10 36° SSW
Cosmos 2219 Rocket 2.2 23:44:45 10° NNW 23:50:28 84° ENE 23:53:13 32° SSE
Cosmos 468 Rocket 4.3 23:49:02 39° SSE 23:50:39 54° ESE 23:55:50 10° NNE
SL-4 R/B 2.1 23:49:35 28° W 23:51:15 61° NNW 23:54:58 10° ENE
SL-27 R/B 2.2 23:53:43 84° NNW 23:53:43 84° NNW 23:56:56 10° NNE
Cosmos 1934 Rocket 4.4 23:47:51 10° NNW 23:53:41 49° W 23:56:10 32° SW
Cosmos 540 Rocket 4.2 23:52:58 33° SE 23:54:27 40° ESE 23:59:15 10° NE
ATLAS 5 CENTAUR R/B 4.2 23:53:32 10° WNW 23:56:15 17° NNW 23:59:13 10° NNE
